When you browse on this site, cookies collect data to enhance your experience and personalize the content and advertising you see.
Visit our Privacy Policy to learn more. By continuing to use the site, you agree to this use of cookies and data.
  • In Hungary
  • List of Countries
  • For 7 days
  • Water Temperature
  • Weather Map
  • News
  • Weather Widgets
  • user-avatar
    Login

    Hourly Weather Ldzan

    Today, 8 April, Wednesday

    Time Temperature Precipitation Wind Pressure Humidity
    00:00 +10°C° 0 mm 3 mps 757 mmHg 77%
    01:00 +8°C° 0 mm 4 mps 757 mmHg 80%
    02:00 +8°C° 0 mm 3 mps 757 mmHg 76%
    03:00 +8°C° 0 mm 3 mps 757 mmHg 72%
    04:00 +7°C° 0 mm 2 mps 757 mmHg 68%
    05:00 +8°C° 0 mm 2 mps 757 mmHg 65%
    06:00 +8°C° 0 mm 2 mps 757 mmHg 63%
    07:00 +9°C° 0 mm 3 mps 757 mmHg 59%
    08:00 +11°C° 0 mm 3 mps 757 mmHg 55%
    09:00 +13°C° 0 mm 3 mps 756 mmHg 52%
    10:00 +16°C° 0 mm 3 mps 756 mmHg 49%
    11:00 +17°C° 0 mm 2 mps 756 mmHg 47%
    12:00 +18°C° 0 mm 2 mps 755 mmHg 46%
    13:00 +19°C° 0 mm 2 mps 755 mmHg 45%
    14:00 +20°C° 0 mm 2 mps 754 mmHg 43%
    15:00 +21°C° 0 mm 1 mps 754 mmHg 42%
    16:00 +21°C° 0 mm 1 mps 753 mmHg 40%
    17:00 +18°C° 0 mm 2 mps 753 mmHg 46%
    18:00 +17°C° 0 mm 2 mps 752 mmHg 51%
    19:00 +15°C° 0 mm 2 mps 752 mmHg 56%
    20:00 +14°C° 0 mm 2 mps 752 mmHg 57%
    21:00 +13°C° 0 mm 2 mps 752 mmHg 58%
    22:00 +12°C° 0 mm 2 mps 752 mmHg 60%
    23:00 +12°C° 0 mm 2 mps 751 mmHg 58%

    Tomorrow, 9 April, Thursday

    Time Temperature Precipitation Wind Pressure Humidity
    00:00 +10°C° 0 mm 2 mps 751 mmHg 56%
    01:00 +10°C° 0 mm 3 mps 751 mmHg 54%
    02:00 +9°C° 0 mm 3 mps 750 mmHg 55%
    03:00 +9°C° 0 mm 2 mps 750 mmHg 56%
    04:00 +8°C° 0 mm 2 mps 750 mmHg 56%
    05:00 +9°C° 0 mm 3 mps 749 mmHg 56%
    06:00 +9°C° 0 mm 3 mps 749 mmHg 55%
    07:00 +10°C° 0 mm 3 mps 749 mmHg 55%
    08:00 +12°C° 0 mm 4 mps 749 mmHg 51%
    09:00 +14°C° 0 mm 4 mps 749 mmHg 47%
    10:00 +15°C° 0 mm 5 mps 748 mmHg 42%
    11:00 +16°C° 0 mm 5 mps 748 mmHg 41%
    12:00 +17°C° 0 mm 5 mps 748 mmHg 41%
    13:00 +19°C° 0 mm 6 mps 748 mmHg 40%
    14:00 +19°C° 0 mm 6 mps 748 mmHg 44%
    15:00 +19°C° 0 mm 6 mps 747 mmHg 47%
    16:00 +17°C° 0 mm 7 mps 747 mmHg 51%
    17:00 +15°C° 0 mm 6 mps 748 mmHg 55%
    18:00 +14°C° 0 mm 5 mps 748 mmHg 58%
    19:00 +12°C° 0 mm 5 mps 748 mmHg 61%
    20:00 +11°C° 0 mm 4 mps 749 mmHg 65%
    21:00 +10°C° 0 mm 4 mps 750 mmHg 68%
    22:00 +7°C° 0 mm 4 mps 750 mmHg 72%
    23:00 +6°C° 0 mm 4 mps 751 mmHg 69%

    Day after tomorrow, 10 April, Friday

    Time Temperature Precipitation Wind Pressure Humidity
    00:00 +5°C° 0 mm 3 mps 751 mmHg 65%
    01:00 +4°C° 0 mm 3 mps 751 mmHg 62%
    02:00 +3°C° 0 mm 3 mps 751 mmHg 65%
    03:00 +3°C° 0 mm 3 mps 752 mmHg 69%
    04:00 +3°C° 0 mm 2 mps 752 mmHg 72%
    05:00 +4°C° 0 mm 2 mps 752 mmHg 69%
    06:00 +4°C° 0 mm 2 mps 752 mmHg 67%
    07:00 +5°C° 0 mm 2 mps 753 mmHg 65%
    08:00 +7°C° 0 mm 3 mps 753 mmHg 59%
    09:00 +8°C° 0 mm 3 mps 753 mmHg 53%
    10:00 +9°C° 0 mm 3 mps 753 mmHg 47%
    11:00 +10°C° 0 mm 3 mps 753 mmHg 45%
    12:00 +11°C° 0 mm 4 mps 753 mmHg 43%
    13:00 +11°C° 0 mm 4 mps 753 mmHg 40%
    14:00 +11°C° 0 mm 4 mps 752 mmHg 41%
    15:00 +11°C° 0 mm 4 mps 752 mmHg 41%
    16:00 +11°C° 0 mm 3 mps 751 mmHg 42%
    17:00 +10°C° 0 mm 3 mps 751 mmHg 45%
    18:00 +9°C° 0 mm 2 mps 751 mmHg 49%
    19:00 +8°C° 0 mm 2 mps 752 mmHg 52%
    20:00 +8°C° 0 mm 1 mps 752 mmHg 53%
    21:00 +8°C° 0 mm 1 mps 752 mmHg 53%
    22:00 +7°C° 0 mm 1 mps 752 mmHg 53%
    23:00 +7°C° 0 mm 1 mps 752 mmHg 56%

    11 April, Saturday

    Time Temperature Precipitation Wind Pressure Humidity
    00:00 +5°C° 0 mm 0 mps 752 mmHg 58%
    01:00 +5°C° 0 mm 0 mps 752 mmHg 60%
    02:00 +4°C° 0 mm 0 mps 752 mmHg 62%
    03:00 +4°C° 0 mm 0 mps 752 mmHg 64%
    04:00 +3°C° 0 mm 0 mps 752 mmHg 66%
    05:00 +4°C° 0 mm 0 mps 752 mmHg 64%
    06:00 +6°C° 0 mm 1 mps 752 mmHg 62%
    07:00 +7°C° 0 mm 1 mps 752 mmHg 60%
    08:00 +9°C° 0 mm 1 mps 753 mmHg 55%
    09:00 +10°C° 0 mm 1 mps 753 mmHg 50%
    10:00 +12°C° 0 mm 1 mps 753 mmHg 46%
    11:00 +13°C° 0 mm 1 mps 753 mmHg 43%
    12:00 +14°C° 0 mm 1 mps 752 mmHg 40%
    13:00 +14°C° 0 mm 1 mps 752 mmHg 38%
    14:00 +14°C° 0 mm 1 mps 752 mmHg 37%
    15:00 +14°C° 0 mm 1 mps 752 mmHg 37%
    16:00 +14°C° 0 mm 1 mps 752 mmHg 36%
    17:00 +13°C° 0 mm 1 mps 751 mmHg 40%
    18:00 +12°C° 0 mm 1 mps 751 mmHg 44%
    19:00 +9°C° 0 mm 0 mps 751 mmHg 48%
    20:00 +10°C° 0 mm 1 mps 751 mmHg 50%
    21:00 +8°C° 0 mm 2 mps 751 mmHg 53%
    22:00 +7°C° 0 mm 2 mps 751 mmHg 55%
    23:00 +7°C° 0 mm 2 mps 751 mmHg 56%

    12 April, Sunday

    Time Temperature Precipitation Wind Pressure Humidity
    00:00 +7°C° 0 mm 3 mps 751 mmHg 58%
    01:00 +5°C° 0 mm 3 mps 751 mmHg 60%
    02:00 +5°C° 0 mm 3 mps 750 mmHg 62%
    03:00 +5°C° 0 mm 3 mps 750 mmHg 64%
    04:00 +4°C° 0 mm 3 mps 749 mmHg 66%
    05:00 +5°C° 0 mm 3 mps 749 mmHg 64%
    06:00 +6°C° 0 mm 4 mps 749 mmHg 62%
    07:00 +7°C° 0 mm 4 mps 749 mmHg 60%
    08:00 +10°C° 0 mm 4 mps 748 mmHg 55%
    09:00 +12°C° 0 mm 4 mps 748 mmHg 50%
    10:00 +14°C° 0 mm 4 mps 747 mmHg 44%
    11:00 +15°C° 0 mm 4 mps 746 mmHg 43%
    12:00 +16°C° 0 mm 5 mps 746 mmHg 41%
    13:00 +19°C° 0 mm 5 mps 745 mmHg 39%
    14:00 +19°C° 0 mm 5 mps 745 mmHg 41%
    15:00 +19°C° 0 mm 5 mps 744 mmHg 42%
    16:00 +19°C° 0 mm 5 mps 743 mmHg 43%
    17:00 +17°C° 0 mm 4 mps 743 mmHg 50%
    18:00 +15°C° 0 mm 4 mps 743 mmHg 56%
    19:00 +13°C° 0 mm 4 mps 742 mmHg 62%
    20:00 +13°C° 0 mm 4 mps 742 mmHg 65%
    21:00 +12°C° 0 mm 4 mps 742 mmHg 68%
    22:00 +11°C° 0 mm 4 mps 742 mmHg 71%
    23:00 +11°C° 0 mm 4 mps 741 mmHg 73%

    13 April, Monday

    Time Temperature Precipitation Wind Pressure Humidity
    00:00 +10°C° 0 mm 4 mps 741 mmHg 75%
    01:00 +10°C° 0 mm 4 mps 741 mmHg 77%
    02:00 +8°C° 0 mm 4 mps 740 mmHg 77%
    03:00 +8°C° 0 mm 4 mps 740 mmHg 78%
    04:00 +8°C° 0 mm 3 mps 740 mmHg 79%
    05:00 +8°C° 0 mm 4 mps 740 mmHg 78%
    06:00 +8°C° 0 mm 4 mps 739 mmHg 78%
    07:00 +10°C° 0 mm 4 mps 739 mmHg 77%
    08:00 +10°C° 0.9 mm 4 mps 739 mmHg 81%
    09:00 +9°C° 0.9 mm 5 mps 739 mmHg 85%
    10:00 +9°C° 0.9 mm 6 mps 739 mmHg 89%
    11:00 +9°C° 0.7 mm 6 mps 739 mmHg 84%
    12:00 +9°C° 0.7 mm 6 mps 740 mmHg 79%
    13:00 +9°C° 0.7 mm 7 mps 740 mmHg 74%
    14:00 +8°C° 0.3 mm 7 mps 741 mmHg 73%
    15:00 +6°C° 0.3 mm 8 mps 741 mmHg 71%
    16:00 +5°C° 0.3 mm 8 mps 742 mmHg 70%
    17:00 +2°C° 0.1 mm 8 mps 743 mmHg 65%
    18:00 0°C° 0.1 mm 9 mps 744 mmHg 61%
    19:00 -1°C° 0.1 mm 9 mps 745 mmHg 56%
    20:00 -2°C° 0 mm 7 mps 746 mmHg 57%
    21:00 -3°C° 0 mm 6 mps 747 mmHg 57%
    22:00 -3°C° 0 mm 4 mps 748 mmHg 58%
    23:00 -4°C° 0 mm 5 mps 749 mmHg 56%
    Show more